This is the latest recevied weather packets stored in our database for station/object DL9SEC-13. If no packets are shown the sender has not sent any weather packets the latest 10 day(s).
| Time | Temp. | Humidity | Pressure | Rain* | Wind** | Luminosity | Snow |
|---|---|---|---|---|---|---|---|
| 1778062204 | 17.78° C | 61% | 1009.8 hPa | 0 mm | - | - | - |
| 1778061303 | 17.78° C | 63% | 1009.8 hPa | 0 mm | - | - | - |
| 1778060403 | 18.33° C | 65% | 1009.9 hPa | 0 mm | - | - | - |
| 1778059503 | 17.78° C | 64% | 1009.7 hPa | 0 mm | - | - | - |
| 1778058603 | 17.78° C | 64% | 1009.7 hPa | 0 mm | - | - | - |
| 1778057704 | 18.33° C | 66% | 1009.8 hPa | 0 mm | - | - | - |
| 1778056803 | 16.67° C | 66% | 1009.8 hPa | 0 mm | - | - | - |
| 1778055903 | 16.67° C | 70% | 1009.9 hPa | 0 mm | - | - | - |
| 1778055003 | 15.56° C | 77% | 1009.9 hPa | 0 mm | - | - | - |
| 1778054103 | 15.56° C | 79% | 1010 hPa | 0 mm | - | - | - |
| 1778053204 | 15.56° C | 74% | 1010 hPa | 0 mm | - | - | - |
| 1778052303 | 15° C | 77% | 1010 hPa | 0 mm | - | - | - |
| 1778051403 | 14.44° C | 76% | 1010 hPa | 0 mm | - | - | - |
| 1778050504 | 12.78° C | 83% | 1009.8 hPa | 0 mm | - | - | - |
| 1778049603 | 11.67° C | 88% | 1009.9 hPa | 0 mm | - | - | - |
| 1778048703 | 11.11° C | 89% | 1009.9 hPa | 0 mm | - | - | - |
| 1778047804 | 11.11° C | 89% | 1010 hPa | 0 mm | - | - | - |
| 1778046903 | 11.11° C | 89% | 1009.9 hPa | 0 mm | - | - | - |
| 1778046003 | 10.56° C | 90% | 1010 hPa | 0 mm | - | - | - |
| 1778045103 | 10.56° C | 91% | 1010 hPa | 0 mm | - | - | - |
| 1778044203 | 10° C | 90% | 1010.2 hPa | 0 mm | - | - | - |
| 1778043303 | 10° C | 91% | 1010.4 hPa | 0 mm | - | - | - |
| 1778042404 | 9.44° C | 92% | 1010.3 hPa | 0 mm | - | - | - |
| 1778041504 | 9.44° C | 93% | 1010.4 hPa | 0 mm | - | - | - |
| 1778040603 | 10° C | 92% | 1010.5 hPa | 0 mm | - | - | - |
* Rain latest hour (hover to see other rain measurements)
** Current wind speed in m/s (hover to see current wind gust speed)